Vorticity
nan nan nan nan nan nan nan nan nan nan nan nan nan nan nan nan nan nan nan nan nan nan nan nan nan nan nan nan nan nan nan nan nan nan nan nan nan nan nan nan nan nan nan nan nan
nan 7 7 7 7 7 7 7 7 7 7 7 8 7 7 12 17 10 13 9 9 5 6 6 7 4 5 6 6 8 8 7 9 8 2 8 12 6 8 2 6 10 13 11 nan
nan 7 7 7 7 7 7 7 7 6 7 8 8 8 8 13 13 11 15 12 5 3 5 9 6 4 5 6 7 8 11 9 7 2 7 12 9 9 7 5 12 13 7 4 nan
nan 8 7 7 7 7 7 7 7 7 8 9 8 8 13 15 7 7 15 14 7 6 6 8 5 6 6 8 8 8 9 11 8 2 7 8 10 12 4 11 17 14 7 5 nan
nan 7 8 7 7 7 8 8 7 7 8 9 9 11 14 9 4 11 15 7 5 7 7 6 6 7 9 8 7 9 8 13 11 6 4 9 6 7 11 12 12 8 7 5 nan
nan 8 8 8 9 8 8 8 8 7 9 10 9 12 12 8 9 12 8 5 5 7 8 5 6 8 7 7 11 13 12 9 4 3 7 12 4 10 14 8 5 5 5 6 nan
nan 8 8 9 9 9 8 8 9 10 11 10 10 11 9 8 11 9 4 6 7 7 7 7 9 10 6 11 9 8 5 2 5 6 11 7 8 14 9 7 5 5 5 5 nan
nan 9 9 9 9 9 9 10 14 16 14 11 9 8 10 9 8 6 5 7 10 7 6 10 9 10 10 7 4 5 6 5 9 6 6 5 14 10 8 8 6 5 4 7 nan
nan 7 10 10 9 9 8 13 25 20 12 8 5 8 11 8 7 10 7 7 9 8 8 8 7 9 10 1 4 6 9 9 9 7 3 5 7 13 9 5 7 5 5 6 nan
nan 7 10 11 10 8 13 21 18 9 7 6 8 8 5 7 11 10 9 8 8 11 8 7 7 7 6 5 8 10 7 7 10 12 4 4 4 7 8 6 7 7 7 6 nan
nan 6 8 11 10 14 19 15 7 7 5 6 7 7 6 9 11 8 10 8 6 9 7 9 10 8 8 5 4 5 4 7 12 13 9 5 5 6 6 6 7 7 6 8 nan
nan 7 7 9 14 21 13 8 10 6 9 11 7 8 9 10 9 9 9 5 9 9 8 7 9 10 12 8 -0 -0 3 9 12 14 7 9 11 10 10 10 11 8 5 7 nan
nan 9 8 9 22 16 8 10 4 7 10 12 12 11 14 10 8 9 5 6 9 7 9 4 9 11 8 7 8 5 9 7 12 11 7 7 16 16 11 10 10 10 8 8 nan
nan 10 8 19 20 8 12 4 10 9 9 12 11 12 10 8 10 10 9 7 10 9 6 7 9 8 8 9 9 8 17 16 11 3 7 8 9 16 12 11 10 9 10 7 nan
nan 11 14 19 14 10 4 9 14 7 8 10 11 8 8 10 9 8 9 11 11 9 6 9 10 8 8 15 8 15 22 17 5 5 8 10 7 8 12 15 16 14 8 10 nan
nan 11 21 18 9 6 5 13 7 9 10 9 9 8 5 8 8 9 7 5 10 9 6 8 9 10 8 18 16 7 4 5 5 8 7 9 9 7 9 9 15 17 17 9 nan
nan 21 23 7 5 8 13 12 8 8 8 11 8 10 7 10 8 10 11 4 5 9 8 10 8 9 12 7 8 4 -1 2 5 3 5 12 9 8 11 9 5 11 19 18 nan
nan 30 18 4 3 10 15 9 8 9 8 7 12 11 12 8 7 10 7 7 8 6 9 13 11 8 10 8 9 9 5 9 12 10 8 10 7 7 8 7 9 11 12 16 nan
nan 22 10 11 10 10 12 6 10 8 7 8 10 9 10 8 10 10 8 10 14 8 4 9 6 8 10 14 17 12 10 10 13 8 9 7 9 10 9 7 9 8 8 10 nan
nan 10 9 16 14 10 9 7 8 7 7 11 10 10 9 11 10 8 8 8 13 11 8 10 5 9 10 7 10 13 12 9 9 9 9 4 7 15 13 12 7 7 7 8 nan
nan 8 11 13 10 12 11 8 9 10 10 8 9 9 10 12 11 9 6 7 14 12 10 8 9 11 6 7 10 13 3 6 8 11 14 10 10 11 10 10 9 9 7 8 nan
nan 9 9 9 9 9 12 8 8 12 11 8 10 10 12 10 10 11 6 8 16 10 5 5 11 8 11 8 8 7 12 10 12 10 7 11 11 10 10 8 9 8 8 10 nan
nan 11 9 13 11 8 9 10 9 9 8 10 11 12 10 9 8 11 9 14 12 9 12 6 6 10 7 9 8 9 9 11 10 11 11 5 5 6 9 10 8 7 7 9 nan
nan 12 11 11 11 9 10 12 9 9 10 9 11 14 11 10 11 12 8 9 10 8 11 10 10 7 7 9 11 12 7 6 5 8 8 5 6 6 7 8 8 8 7 9 nan
nan 10 9 8 8 8 10 9 9 11 12 12 9 7 13 11 9 8 10 7 12 8 5 10 10 10 9 10 9 8 10 8 5 7 2 6 7 6 10 10 7 8 10 10 nan
nan 10 9 9 8 10 12 10 10 11 9 8 4 4 14 16 7 7 7 9 8 6 6 12 13 10 7 8 8 7 6 7 9 9 9 7 5 15 14 10 8 8 9 11 nan
nan nan nan nan nan nan nan nan nan nan nan nan nan nan nan nan nan nan nan nan nan nan nan nan nan nan nan nan nan nan nan nan nan nan nan nan nan nan nan nan nan nan nan nan nan
CAPE
0 0 0 1 1 0 0 0 2 2 1 0 2 2 2 2 0 0 0 0 0 0 0 0 0 0 7 153 4 4 120 129 120 160 201 211 65 61 36 0 66 31 10 29 18
1 0 0 0 0 0 0 2 2 2 2 1 3 2 2 2 0 0 0 0 0 0 0 0 0 0 2 294 31 0 32 78 218 103 108 293 135 75 3 35 54 0 0 26 13
1 1 2 0 0 0 1 0 0 0 0 0 2 1 1 0 0 0 0 0 0 0 0 0 0 0 7 493 344 14 0 38 192 126 111 296 188 60 6 91 54 7 16 40 29
1 1 0 1 2 1 0 0 0 0 0 1 2 1 0 0 0 0 0 0 0 0 0 0 0 0 558 510 202 332 54 39 120 42 132 274 279 60 51 102 43 1 0 30 25
2 2 2 2 0 0 0 2 1 0 0 0 1 1 0 0 0 0 63 8 0 0 0 0 0 0 197 403 274 213 157 72 116 46 191 309 149 197 79 46 2 4 10 4 22
1 1 0 0 0 0 0 0 1 2 2 0 1 1 0 0 0 0 0 0 0 0 0 0 0 5 525 585 358 206 147 62 34 69 218 89 134 242 118 53 29 23 23 5 8
2 1 1 0 0 0 0 0 0 0 2 1 0 0 0 0 0 0 0 0 0 0 0 0 0 2 618 396 230 213 186 193 185 123 198 78 216 203 103 68 62 91 54 20 0
2 0 1 1 2 0 2 2 0 2 0 0 0 0 0 0 0 0 0 0 0 0 0 0 0 339 553 379 239 354 310 248 281 254 191 151 143 171 60 66 63 92 96 85 68
4 0 1 1 0 0 2 0 0 0 0 0 0 0 0 0 0 0 0 0 0 0 0 0 4 358 281 349 322 259 343 291 348 287 208 159 156 375 83 88 105 88 98 91 80
1 3 1 1 2 0 0 0 0 0 0 0 0 0 0 0 0 0 0 0 0 0 0 0 17 225 410 168 81 165 85 168 228 353 248 164 134 189 334 81 92 151 123 164 150
1 2 0 0 0 0 0 0 0 0 0 0 0 0 0 0 0 0 0 0 0 0 0 0 55 184 290 140 107 97 29 0 117 448 318 349 228 65 320 360 271 150 152 153 210
0 0 2 0 0 1 0 0 0 0 0 0 0 0 0 0 0 0 0 0 0 0 0 0 0 0 35 188 138 119 39 0 256 658 454 385 358 282 108 312 317 254 231 113 232
0 0 1 1 0 0 0 0 0 0 0 0 0 0 0 0 0 0 0 0 0 0 0 0 0 0 0 0 0 0 0 0 0 748 596 565 513 579 280 183 221 253 286 232 277
0 0 0 0 0 0 0 0 0 0 0 0 0 0 0 0 0 0 0 0 0 0 0 0 0 0 0 0 0 0 0 0 396 462 295 441 111 172 535 470 266 227 377 207 127
0 0 1 0 0 0 0 0 0 0 0 0 0 0 0 0 0 0 0 0 0 0 0 0 0 0 0 0 0 0 1 99 403 344 447 501 347 222 307 489 577 336 238 424 211
0 0 2 0 0 0 0 0 0 0 0 0 0 0 0 0 0 0 0 0 0 0 0 0 0 0 0 0 0 204 394 377 394 497 224 97 245 13 191 470 376 387 325 277 390
0 0 0 0 0 0 0 0 0 0 0 0 0 0 0 0 0 0 0 0 0 0 0 0 0 0 0 0 24 57 140 37 112 161 9 46 325 102 146 387 465 631 348 305 335
0 0 0 0 0 0 0 0 0 0 0 0 0 0 0 0 0 0 0 0 0 0 0 0 0 0 0 0 1 31 0 0 0 0 0 141 214 86 328 262 231 654 712 377 246
0 0 0 0 0 0 0 0 0 0 0 0 0 0 0 0 0 0 0 0 0 0 0 0 0 0 0 0 0 0 0 0 0 0 0 0 40 231 275 356 465 430 372 459 375
0 0 0 0 0 0 0 0 0 0 0 0 0 0 0 0 0 0 0 0 0 0 0 0 0 0 0 0 0 0 0 0 0 0 0 5 100 170 558 394 274 125 134 215 318
0 0 0 0 0 0 0 0 0 0 0 0 0 0 0 0 0 0 0 0 0 0 0 0 0 0 0 2 0 0 0 0 0 0 0 0 9 300 428 69 51 18 45 50 88
0 0 0 0 0 0 0 0 0 0 0 0 0 0 0 0 0 0 0 0 0 0 0 0 0 4 5 0 0 0 0 2 1 13 6 10 2 36 169 92 62 62 166 715 747
0 0 0 0 0 0 0 0 0 0 0 0 0 0 0 0 0 0 0 0 0 0 0 0 0 10 25 4 0 0 0 0 7 28 155 97 2 25 335 412 293 967 742 702 785
0 0 0 0 0 0 0 0 0 0 0 0 0 0 0 0 0 0 0 0 0 0 0 0 0 0 0 0 0 3 0 0 2 13 16 14 22 37 131 674 774 745 759 658 929
0 0 0 0 0 0 0 0 0 0 0 0 0 0 0 0 0 0 0 0 0 15 0 0 17 0 0 0 0 0 0 0 0 0 0 0 0 0 10 312 810 702 782 637 887
0 0 0 0 0 0 0 0 0 0 0 0 0 0 0 0 0 0 0 0 0 0 0 0 22 15 17 4 7 5 9 9 0 0 0 0 0 12 0 357 751 668 505 764 816
0 0 0 0 0 0 0 0 0 0 0 0 0 0 0 0 0 0 0 0 0 0 0 22 23 46 0 0 10 1 22 21 13 22 28 10 0 19 74 491 737 660 483 597 680